Location: Rimouski
(48.4330°N, 68.5170°W)
Time: 12:52:17
(UTC-04:00)

Daily predictions for brighter satellites

Satellite Brightness Start Highest point End
(mag) Time Altitude Azimuth Time Altitude Azimuth Time Altitude Azimuth
Tsikada Rocket 4.4 20:52:51 10° SSE 20:58:55 47° E 21:04:58 10° NNE
Lacrosse 5 rocket 1.2 20:57:17 10° SW 21:01:10 77° SE 21:05:18 10° NE
Cosmos 2285 Rocket 4.5 20:58:32 10° NNW 21:04:45 63° WSW 21:11:00 10° S
Lacrosse 5 2.9 21:00:29 10° W 21:05:25 50° NNW 21:10:22 10° NE
Cosmos 1743 4.4 21:02:05 10° NNW 21:05:35 33° W 21:09:02 10° SSW
CZ-4 SHROUD 3.2 21:02:48 10° SSE 21:05:57 88° WSW 21:09:09 10° NNW
Meteor 1-23 Rocket 4.3 21:00:59 10° S 21:06:39 88° W 21:12:26 10° NNE
Cosmos 1302 Rocket 4.3 21:03:38 10° NNW 21:08:51 71° WSW 21:14:04 10° SSE
MetOp-B 4.2 21:08:37 10° SSE 21:13:58 76° ENE 21:19:20 10° NNW
SL-8 R/B 3.7 21:09:38 10° WSW 21:14:28 79° SSE 21:19:19 10° E
UNK 4.4 21:10:45 10° NNE 21:16:00 55° ESE 21:21:29 10° S
SeaSat 1 2.9 21:11:19 10° SSE 21:16:12 62° WSW 21:21:08 10° NW
CZ-4B R/B 3.9 21:12:01 10° NNE 21:16:51 45° E 21:21:47 10° S
Cosmos 1464 Rocket 4.5 21:11:25 10° NNW 21:17:29 63° W 21:23:32 10° S
Okean 2 3.9 21:13:41 10° SSW 21:17:50 65° WNW 21:22:01 10° N
Cosmos 2058 Rocket 4.4 21:15:55 10° NNW 21:20:00 38° W 21:24:02 10° SSW
Cosmos 1603 4.0 21:15:39 10° S 21:21:00 47° ESE 21:26:21 10° NE
APEX 4.4 21:17:38 10° NW 21:21:18 45° WSW 21:26:00 10° S
SL-08 RB Rocket 4.4 21:17:07 10° SE 21:21:23 41° ENE 21:25:39 10° N
Terra 3.2 21:17:42 10° ESE 21:21:33 25° ENE 21:25:25 10° N
GRACE-1 3.9 21:19:19 10° N 21:22:13 88° WNW 21:25:05 10° S
GRACE-2 3.9 21:19:45 10° N 21:22:40 87° W 21:25:31 10° S
Cosmos 1515 4.5 21:23:52 10° SSE 21:27:23 35° E 21:30:56 10° NNE
Meteor 2-4 Rocket 4.4 21:23:21 10° SSW 21:29:10 61° WNW 21:35:04 10° N
Cosmos 1346 Rocket 4.4 21:27:33 12° SE 21:29:45 19° E 21:32:32 10° NE
Cosmos 1461 3.6 21:26:37 10° NW 21:30:49 48° WSW 21:34:38 11° SSE
Cosmos 1602 Rocket 3.6 21:27:01 10° S 21:31:30 90° W 21:36:00 10° N
Cosmos 2333 Rocket 4.3 21:28:03 10° WSW 21:33:05 32° NW 21:38:10 10° NNE
Cosmos 1825 Rocket 4.3 21:33:19 12° SSE 21:37:01 36° E 21:41:06 10° NNE
ATLAS 3B R/B 3.8 21:31:33 10° SSE 21:37:42 27° ESE 21:43:45 10° ENE
Cosmos 1634 Rocket 4.2 21:31:37 10° N 21:37:44 59° ENE 21:43:13 13° SSE
Cosmos 1812 Rocket 3.7 21:33:48 10° NNW 21:38:11 78° W 21:42:34 10° S
Envisat 4.1 21:41:26 10° SSW 21:46:12 41° W 21:51:01 10° NNW
Cosmos 1943 3.9 21:41:51 10° SSE 21:46:46 33° ESE 21:51:49 10° NE
BREEZE-M DEB (TANK) 2.7 21:44:34 10° SW 21:47:20 28° SSE 21:48:16 20° ESE
USA 234 3.7 21:43:14 13° SSE 21:48:57 50° SW 21:55:20 10° WNW
USA 245 4.4 21:43:09 10° S 21:49:15 78° WSW 21:54:29 10° NNW
USA 81 4.1 21:47:48 10° N 21:53:07 78° E 21:57:43 14° S
YAOGAN 6 3.2 21:50:25 11° S 21:53:53 55° W 21:57:36 10° NNW
Cosmos 1943 Rocket 3.2 21:51:11 10° NNW 21:56:16 35° NE 22:00:44 13° ESE
Cosmos 2279 Rocket 4.3 21:57:24 10° N 22:03:33 55° ENE 22:08:07 18° SSE
Cosmos 1766 3.9 22:00:38 10° N 22:04:29 44° ENE 22:06:44 22° SE
ATLAS CENTAUR R/B 4.0 22:02:14 10° W 22:06:39 30° NW 22:11:03 10° NNE
Atlas Centaur 2 4.2 22:10:40 10° SW 22:16:17 20° S 22:18:16 19° SSE
CZ-4C R/B 3.8 22:15:26 18° S 22:18:32 62° WSW 22:22:36 10° NNW
Cosmos 1953 Rocket 3.5 22:18:27 19° S 22:21:36 76° E 22:26:04 10° NNE
CZ-4 R/B 4.2 22:16:45 10° N 22:21:43 72° WNW 22:26:42 10° SSW
H-2A R/B 1.9 22:19:20 21° SSE 22:22:40 87° ENE 22:27:45 10° NNW
Cosmos 2346 Rocket 4.5 22:17:09 10° S 22:23:21 86° W 22:29:33 10° N
SAR-Lupe-2 3.6 22:21:49 26° S 22:23:43 79° WSW 22:27:20 10° NNW
COSMOS 2455 2.8 22:20:01 10° SSW 22:26:02 86° ESE 22:32:06 10° NE
Cosmos 2369 Rocket 2.4 22:22:00 10° NNW 22:27:39 66° WSW 22:31:20 22° S
ISS -0.9 22:30:50 12° E 22:30:50 12° E 22:31:05 10° E
ARGOS 4.1 22:29:23 13° SSW 22:33:58 42° W 22:39:08 10° NNW
Geosat 4.0 22:31:01 10° NNE 22:36:04 88° NW 22:41:08 10° SSW
Cosmos 1953 2.6 22:32:15 10° N 22:36:11 52° ENE 22:37:47 31° SE
DMSP B5D2-2 4.1 22:31:04 10° NNE 22:36:22 67° ESE 22:39:47 22° S
SL-16 R/B 4.5 22:32:05 10° WSW 22:36:47 26° NW 22:41:31 10° NNE
Cosmos 2084 4.1 22:33:50 10° NNW 22:37:47 47° NE 22:40:22 20° ESE
Spot 4 3.8 22:35:17 26° SSE 22:38:03 87° WSW 22:42:52 10° NNW
IGS 5A 3.5 22:36:44 27° S 22:38:55 75° WSW 22:43:06 10° NNW
Cosmos 1805 3.7 22:36:57 10° N 22:40:47 47° ENE 22:42:15 31° SE
Lacrosse 5 rocket 3.2 22:37:08 10° W 22:40:48 32° NNW 22:44:39 10° NE
Cosmos 1190 Rocket 4.0 22:37:27 14° SSW 22:42:02 84° ESE 22:47:24 10° NNE
Cosmos-2242 3.0 22:38:36 10° N 22:43:02 77° E 22:45:05 31° SSE
Spot 2 4.3 22:43:05 10° NNE 22:47:48 87° ESE 22:51:03 22° SSW
Cosmos 2263 4.4 22:43:26 10° NNW 22:48:59 62° WSW 22:52:07 26° S
Lacrosse 5 3.8 22:44:46 10° WNW 22:49:16 31° N 22:53:46 10° ENE
COSMOS 2406 4.2 22:50:40 25° SE 22:52:25 30° ESE 22:57:20 10° NE
Cosmos 1758 Rocket 4.0 22:53:07 19° SSW 22:56:08 60° WNW 23:00:28 10° N
Lacrosse 4 Rocket 1.3 22:55:02 32° S 22:56:46 65° ESE 23:00:51 10° NE
SL-8 R/B 3.6 22:52:12 10° W 22:57:04 88° S 23:01:31 12° E
Cosmos 676 Rocket 4.0 22:54:56 24° S 22:58:12 72° ESE 23:03:33 10° NNE
Terra 2.5 22:56:20 22° SSW 22:59:03 47° W 23:03:40 10° NNW
Cosmos 1346 Rocket 4.0 23:03:05 15° SW 23:05:54 38° WNW 23:09:38 10° N
ALOS 2 3.9 23:04:36 21° ESE 23:06:31 30° ENE 23:10:20 10° N
Cosmos 1340 4.1 23:06:45 23° E 23:07:04 23° E 23:10:07 10° NE
Cosmos 1092 Rocket 4.3 23:08:19 29° SSE 23:11:28 56° E 23:17:36 10° NNE
Cosmos 1140 Rocket 3.8 23:09:35 33° SSE 23:11:29 48° ESE 23:16:31 10° NNE
Cosmos 1689 Rocket 3.8 23:18:28 23° E 23:18:59 24° ENE 23:21:40 10° NNE
Cosmos 1758 3.8 23:16:18 10° NNW 23:20:20 54° W 23:21:45 35° SSW
Cosmos 1900 4.3 23:17:42 22° SSW 23:21:04 83° SE 23:26:15 10° NE
Cosmos 1842 Rocket 3.5 23:18:00 10° NNW 23:22:23 81° W 23:23:51 42° S
CZ-4C R/B 4.0 23:22:49 15° ESE 23:22:59 15° ESE 23:26:02 10° ENE
Cosmos 1707 3.8 23:22:36 30° ESE 23:23:05 31° E 23:26:35 10° NNE
Cosmos 1842 4.1 23:23:01 26° SW 23:24:53 46° WNW 23:28:41 10° N
Nadezhda 4 Rocket 4.0 23:21:22 28° S 23:25:00 89° E 23:31:23 10° N
ATLAS 3B R/B 3.0 23:20:03 10° SW 23:27:47 85° NW 23:35:18 10° NE
SL-27 R/B 2.2 23:29:35 69° SSW 23:29:57 90° ESE 23:33:20 10° NNE
Cosmos 1943 4.2 23:25:13 10° SW 23:30:40 47° NW 23:36:11 10° NNE
Cosmos 407 Rocket 4.3 23:27:24 12° SW 23:32:05 50° WNW 23:37:11 10° NNE
Cosmos 2208 Rocket 4.0 23:31:13 10° NNW 23:36:23 69° WSW 23:38:18 38° S
Meteor 2-5 Rocket 4.0 23:34:17 34° SSE 23:36:41 57° E 23:42:22 10° NNE
Cosmos 1544 3.2 23:35:06 10° NNW 23:38:51 69° W 23:39:31 54° SSW
Cosmos 1943 Rocket 2.8 23:34:53 10° NW 23:40:08 44° WSW 23:42:15 31° SSW
Cosmos 614 Rocket 4.1 23:43:39 40° SSE 23:45:17 59° ESE 23:50:26 10° NNE
CZ-4C R/B 2.6 23:48:57 79° SW 23:49:02 80° WSW 23:52:16 10° NNW
CZ-4B R/B 1.6 23:50:30 59° SE 23:51:00 71° ENE 23:54:42 10° N
Meteor 2-1 Rocket 4.5 23:45:08 10° N 23:51:03 65° ENE 23:53:40 33° SE
